This is the latest recevied weather packets stored in our database for station/object WP3XM. If no packets are shown the sender has not sent any weather packets the latest 10 day(s).
| Time | Temp. | Humidity | Pressure | Rain* | Wind** | Luminosity | Snow |
|---|---|---|---|---|---|---|---|
| 1777462082 | 23.33° C | 99% | 1015.9 hPa | 0 mm | - | 338 W/m² | - |
| 1777461779 | 23.33° C | 99% | 1016.1 hPa | 0 mm | - | 175 W/m² | - |
| 1777461474 | 22.78° C | 99% | 1016.1 hPa | 0 mm | - | 103 W/m² | - |
| 1777461172 | 22.78° C | 99% | 1016.1 hPa | 0 mm | - | 118 W/m² | - |
| 1777460872 | 22.78° C | 99% | 1016.1 hPa | 0 mm | - | 88 W/m² | - |
| 1777460567 | 22.78° C | 99% | 1015.9 hPa | 0 mm | - | 94 W/m² | - |
| 1777460263 | 22.78° C | 99% | 1016 hPa | 0 mm | - | 122 W/m² | - |
| 1777459961 | 22.78° C | 99% | 1015.8 hPa | 0 mm | - | 62 W/m² | - |
| 1777459658 | 22.78° C | 99% | 1015.8 hPa | 0 mm | - | 51 W/m² | - |
| 1777459354 | 22.78° C | 99% | 1015.7 hPa | 0 mm | - | 73 W/m² | - |
| 1777459052 | 22.78° C | 99% | 1015.7 hPa | 0 mm | - | 56 W/m² | - |
| 1777458749 | 22.78° C | 99% | 1015.6 hPa | 0 mm | - | 42 W/m² | - |
| 1777458446 | 22.22° C | 99% | 1015.5 hPa | 0 mm | - | 33 W/m² | - |
| 1777458142 | 22.22° C | 99% | 1015.5 hPa | 0 mm | - | 37 W/m² | - |
| 1777457838 | 22.22° C | 99% | 1015.3 hPa | 0 mm | - | 20 W/m² | - |
| 1777457532 | 22.22° C | 99% | 1015.6 hPa | 0 mm | - | 12 W/m² | - |
| 1777457228 | 22.22° C | 99% | 1015.5 hPa | 0 mm | - | 9 W/m² | - |
| 1777456924 | 22.22° C | 99% | 1015.3 hPa | 0 mm | - | 5 W/m² | - |
| 1777456620 | 22.22° C | 99% | 1015.5 hPa | 0 mm | - | 3 W/m² | - |
| 1777456315 | 22.22° C | 98% | 1015.5 hPa | 0 mm | - | 1 W/m² | - |
| 1777456011 | 22.22° C | 98% | 1015.1 hPa | 0 mm | - | 0 W/m² | - |
| 1777455708 | 22.78° C | 98% | 1015.1 hPa | 0 mm | - | 0 W/m² | - |
| 1777455404 | 22.78° C | 98% | 1015.1 hPa | 0 mm | - | 0 W/m² | - |
| 1777455101 | 22.78° C | 98% | 1014.9 hPa | 0 mm | - | 0 W/m² | - |
| 1777454799 | 22.78° C | 98% | 1014.8 hPa | 0 mm | - | 0 W/m² | - |
* Rain latest hour (hover to see other rain measurements)
** Current wind speed in m/s (hover to see current wind gust speed)